This is the latest recevied weather packets stored in our database for station/object KD2RHT-13. If no packets are shown the sender has not sent any weather packets the latest 10 day(s).
| Time | Temp. | Humidity | Pressure | Rain* | Wind** | Luminosity | Snow |
|---|---|---|---|---|---|---|---|
| 1777743485 | 7.78° C | 68% | 1015.2 hPa | 0 mm | - | 285 W/m² | - |
| 1777743182 | 7.78° C | 67% | 1015.6 hPa | 0 mm | - | 134 W/m² | - |
| 1777742880 | 7.78° C | 68% | 1015.2 hPa | 0 mm | - | 85 W/m² | - |
| 1777742576 | 7.78° C | 68% | 1015.6 hPa | 0 mm | - | 127 W/m² | - |
| 1777742272 | 8.33° C | 69% | 1015.2 hPa | 0 mm | - | 179 W/m² | - |
| 1777741969 | 8.33° C | 66% | 1015.6 hPa | 0 mm | - | 157 W/m² | - |
| 1777741666 | 8.33° C | 66% | 1015.6 hPa | 0 mm | - | 232 W/m² | - |
| 1777741363 | 8.33° C | 66% | 1015.2 hPa | 0 mm | - | 433 W/m² | - |
| 1777741059 | 8.33° C | 66% | 1015.6 hPa | 0 mm | - | 222 W/m² | - |
| 1777740756 | 7.78° C | 67% | 1015.2 hPa | 0 mm | - | 260 W/m² | - |
| 1777740452 | 8.33° C | 64% | 1015.6 hPa | 0 mm | - | 218 W/m² | - |
| 1777740151 | 8.33° C | 67% | 1015.6 hPa | 0 mm | - | 236 W/m² | - |
| 1777739846 | 8.33° C | 64% | 1015.2 hPa | 0 mm | - | 211 W/m² | - |
| 1777739543 | 8.89° C | 65% | 1015.6 hPa | 0 mm | - | 174 W/m² | - |
| 1777739240 | 10° C | 65% | 1015.6 hPa | 0 mm | - | 194 W/m² | - |
| 1777738936 | 10° C | 65% | 1015.2 hPa | 0 mm | - | 279 W/m² | - |
| 1777738634 | 8.33° C | 63% | 1015.2 hPa | 0 mm | - | 810 W/m² | - |
| 1777738330 | 8.89° C | 66% | 1015.2 hPa | 0 mm | - | 663 W/m² | - |
| 1777738028 | 8.89° C | 62% | 1015.6 hPa | 0 mm | - | 220 W/m² | - |
| 1777737727 | 9.44° C | 65% | 1015.2 hPa | 0 mm | - | 342 W/m² | - |
| 1777737425 | 9.44° C | 64% | 1015.2 hPa | 0 mm | - | 286 W/m² | - |
| 1777737122 | 8.33° C | 62% | 1015.2 hPa | 0 mm | - | 949 W/m² | - |
| 1777736818 | 8.33° C | 64% | 1015.6 hPa | 0 mm | - | 150 W/m² | - |
| 1777736189 | 9.44° C | 63% | 1015.6 hPa | 0 mm | - | 245 W/m² | - |
| 1777735886 | 10.56° C | 63% | 1015.6 hPa | 0 mm | - | 606 W/m² | - |
* Rain latest hour (hover to see other rain measurements)
** Current wind speed in m/s (hover to see current wind gust speed)